Terug naar catalogus

STARLINK-34934

ActiefCommunicatieVLEO
NORAD 65897·PAYLOAD·🇺🇸 United States

Gelanceerd Oct 7, 2025 vanaf Cape Canaveral Space Force Station

Loading…

Volgende Passages (komende 24 uur)

TLE

VersSource: CelesTrak SupGP

Epoch: Sep 15, 2026, 02:35 UTC

1 65897C 25224R   26258.10812500 -.00065257  00000+0 -19282-2 0  2588
2 65897  53.1574 207.1054 0001313  87.7326  43.4373 15.34420953    13

Volg STARLINK-34934 in realtime met AllMySat

Download on the App Store